FW3814 Weather Reports


Display with metric or nautical units.
time (UTC)temp
F
wind
direction
speed
MPH
gust
MPH
rain 1hr
in
rain 24hr
in
rain mn
in
humidity
%
barometer
mb
20260505205004 54 132 5.0 8.0 0.00 0.80 0.80 94 1010.9
20260505204504 54 137 6.0 8.0 0.00 0.80 0.80 94 1010.9
20260505204004 54 143 5.0 8.0 0.00 0.80 0.80 94 1011.1
20260505203504 54 132 6.0 8.0 0.01 0.80 0.80 94 1011.1
20260505203025 54 132 7.0 8.0 0.02 0.80 0.80 94 1011.0
20260505202504 54 156 6.0 8.0 0.05 0.80 0.80 94 1011.0
20260505202004 54 145 6.0 7.0 0.06 0.80 0.80 94 1011.1
20260505201504 53 131 6.0 8.0 0.06 0.80 0.80 94 1011.0
20260505201004 53 139 5.0 8.0 0.07 0.80 0.80 94 1011.1
20260505200504 53 144 6.0 7.0 0.09 0.80 0.80 94 1011.1
20260505200004 53 172 7.0 8.0 0.09 0.80 0.80 94 1010.8
20260505195504 53 169 6.0 8.0 0.12 0.80 0.80 94 1010.9
20260505195004 53 148 4.0 8.0 0.12 0.80 0.80 94 1010.8
20260505194504 53 213 1.0 3.0 0.12 0.80 0.80 94 1010.8
20260505194004 53 0 0.0 0.0 0.12 0.80 0.80 94 1010.8
20260505193525 53 0 0.0 0.0 0.12 0.79 0.80 94 1010.8
20260505193004 53 0 0.0 0.0 0.11 0.78 0.78 94 1010.8
20260505192504 53 0 0.0 0.0 0.08 0.76 0.76 94 1011.0
20260505192004 53 0 0.0 0.0 0.08 0.74 0.74 93 1010.8
20260505191504 53 350 0.0 2.0 0.08 0.74 0.74 93 1010.6
20260505191025 53 359 1.0 2.0 0.07 0.73 0.73 93 1010.8
20260505190504 53 356 2.0 2.0 0.07 0.71 0.71 94 1010.7
20260505190004 53 335 1.0 2.0 0.07 0.71 0.71 94 1010.8
20260505185504 53 172 1.0 3.0 0.07 0.69 0.69 94 1010.5
20260505185004 53 135 1.0 3.0 0.07 0.69 0.69 94 1010.5
20260505184504 53 153 1.0 4.0 0.07 0.69 0.69 94 1010.5
20260505184024 53 121 2.0 4.0 0.07 0.69 0.69 94 1010.5
20260505183504 53 111 3.0 7.0 0.06 0.67 0.67 94 1010.5
20260505183004 53 117 4.0 7.0 0.07 0.67 0.67 94 1010.6
20260505182504 53 70 3.0 6.0 0.07 0.67 0.67 93 1010.4
20260505182003 53 32 3.0 4.0 0.07 0.66 0.66 93 1010.5
20260505181504 53 37 3.0 4.0 0.08 0.66 0.66 93 1010.5
20260505181003 53 47 1.0 4.0 0.09 0.66 0.66 93 1010.5
20260505180504 53 15 0.0 1.0 0.07 0.64 0.64 93 1010.5
20260505180004 53 15 0.0 1.0 0.07 0.64 0.64 93 1010.6
20260505175504 53 315 0.0 1.0 0.06 0.61 0.61 93 1010.5
20260505175004 53 295 1.0 2.0 0.07 0.61 0.61 93 1010.5
20260505174504 53 238 2.0 3.0 0.08 0.61 0.61 93 1010.6
20260505174004 53 325 3.0 3.0 0.11 0.61 0.61 93 1010.6
20260505173504 53 13 3.0 5.0 0.12 0.61 0.61 93 1010.5
20260505173025 53 6 4.0 5.0 0.12 0.60 0.60 93 1010.6
20260505172504 53 2 3.0 4.0 0.12 0.60 0.60 93 1010.6
20260505172004 53 1 3.0 4.0 0.11 0.59 0.59 93 1010.6
20260505171525 53 6 4.0 5.0 0.09 0.58 0.58 93 1010.6
20260505171004 53 12 2.0 5.0 0.08 0.57 0.57 93 1010.6
20260505170503 53 359 1.0 3.0 0.09 0.57 0.57 93 1010.6
20260505170004 53 358 2.0 4.0 0.09 0.57 0.57 93 1010.7
20260505165504 53 347 3.0 4.0 0.08 0.56 0.56 93 1010.7
20260505165004 53 355 3.0 4.0 0.07 0.54 0.54 93 1010.5
20260505164504 53 7 4.0 4.0 0.07 0.53 0.53 93 1010.6
20260505164003 53 14 2.0 4.0 0.05 0.51 0.51 93 1010.7
20260505163504 53 22 1.0 3.0 0.04 0.50 0.50 93 1010.6
20260505163004 53 12 2.0 4.0 0.02 0.48 0.48 93 1010.8
20260505162504 53 8 3.0 4.0 0.02 0.48 0.48 93 1010.8
20260505162004 53 1 4.0 4.0 0.02 0.48 0.48 93 1010.7
20260505161504 53 3 3.0 4.0 0.02 0.48 0.48 92 1010.7
20260505161003 53 10 1.0 4.0 0.02 0.48 0.48 92 1010.6
20260505160503 53 337 1.0 4.0 0.01 0.47 0.47 92 1010.8
20260505153003 53 1 3.0 4.0 0.04 0.46 0.46 92 1010.9
20260505152504 53 354 3.0 4.0 0.04 0.46 0.46 92 1011.0
20260505152004 53 2 3.0 4.0 0.04 0.46 0.46 92 1011.1
20260505151525 53 10 4.0 6.0 0.04 0.46 0.46 92 1011.1
20260505151003 53 13 3.0 6.0 0.04 0.46 0.46 92 1011.0
20260505150503 53 10 2.0 3.0 0.04 0.46 0.46 92 1010.9
20260505140503 53 360 3.0 5.0 0.05 0.43 0.43 91 1011.3
20260505125004 53 0 0.0 0.0 0.02 0.37 0.37 90 1011.8
20260505124503 53 351 0.0 2.0 0.02 0.37 0.37 90 1011.8
20260505124025 53 356 1.0 2.0 0.04 0.37 0.37 90 1011.7
20260505123524 53 353 2.0 4.0 0.04 0.37 0.37 90 1011.6
20260505123003 53 351 3.0 5.0 0.02 0.35 0.35 90 1011.7
20260505122504 53 342 3.0 5.0 0.02 0.35 0.35 90 1011.6
20260505122004 54 335 3.0 4.0 0.04 0.35 0.35 90 1011.7
20260505121503 54 335 2.0 4.0 0.04 0.35 0.35 90 1011.6
20260505121004 54 348 2.0 4.0 0.04 0.35 0.35 90 1011.6
20260505120503 54 359 3.0 4.0 0.02 0.34 0.34 90 1011.6
20260505120024 54 357 2.0 4.0 0.04 0.34 0.34 90 1011.6
20260505115503 54 344 1.0 3.0 0.04 0.34 0.34 90 1011.5
20260505115003 54 358 1.0 2.0 0.04 0.34 0.34 90 1011.7
20260505114504 54 15 1.0 2.0 0.05 0.34 0.34 90 1011.8
20260505114003 54 18 1.0 3.0 0.04 0.33 0.33 90 1011.6
20260505113524 54 14 2.0 3.0 0.04 0.33 0.33 90 1011.7
20260505113003 54 11 2.0 3.0 0.04 0.33 0.33 90 1011.7
20260505112524 54 9 1.0 2.0 0.05 0.33 0.33 90 1011.7
20260505112003 54 10 1.0 2.0 0.04 0.32 0.32 90 1011.8
20260505111503 54 16 1.0 2.0 0.04 0.32 0.32 90 1011.8
20260505111004 54 360 1.0 3.0 0.04 0.32 0.32 90 1011.9
20260505110525 54 351 2.0 4.0 0.05 0.32 0.32 90 1011.8
20260505102004 54 308 3.0 6.0 0.06 0.28 0.28 90 1011.7
20260505101503 54 331 3.0 6.0 0.06 0.28 0.28 90 1011.6
20260505101004 54 339 4.0 6.0 0.06 0.28 0.28 90 1011.8
20260505100504 54 337 4.0 5.0 0.06 0.27 0.27 90 1011.9
20260505100004 54 331 4.0 5.0 0.06 0.27 0.27 90 1011.9
20260505095503 54 332 4.0 6.0 0.05 0.26 0.26 90 1012.0
20260505095003 54 339 3.0 6.0 0.05 0.26 0.26 86 1011.8
20260505094504 54 350 3.0 4.0 0.04 0.25 0.25 86 1011.9
20260505094003 54 347 2.0 4.0 0.02 0.24 0.24 86 1012.1
20260505093524 54 1 1.0 4.0 0.02 0.24 0.24 86 1012.0
20260505093004 54 19 2.0 4.0 0.02 0.24 0.24 90 1012.0
20260505092504 54 6 3.0 4.0 0.02 0.24 0.24 90 1012.0
20260505092003 54 358 2.0 4.0 0.01 0.22 0.22 86 1011.9
20260505091503 54 6 1.0 2.0 0.01 0.22 0.22 86 1011.8
20260505091003 54 360 0.0 2.0 0.01 0.22 0.22 90 1011.9
20260505090524 54 0 0.0 0.0 0.01 0.21 0.21 90 1012.1
20260505090024 54 0 0.0 0.0 0.01 0.21 0.21 90 1011.9
20260505085504 54 5 0.0 2.0 0.01 0.21 0.21 90 1011.8
20260505085003 54 7 1.0 3.0 0.01 0.21 0.21 90 1011.9
20260505084504 54 6 1.0 3.0 0.01 0.21 0.21 90 1011.8
20260505084003 54 360 0.0 1.0 0.01 0.21 0.21 90 1011.8
20260505083503 54 359 1.0 4.0 0.01 0.21 0.21 90 1011.7
20260505083003 54 360 2.0 4.0 0.01 0.21 0.21 90 1011.6
20260505082524 53 360 4.0 4.0 0.01 0.21 0.21 90 1011.6
20260505082003 53 357 3.0 4.0 0.01 0.21 0.21 90 1011.5
20260505081503 53 358 2.0 4.0 0.01 0.21 0.21 90 1011.4
20260505081003 53 10 1.0 4.0 0.02 0.21 0.21 89 1011.4
20260505080503 53 6 1.0 2.0 0.01 0.20 0.20 89 1011.4
20260505080004 53 360 3.0 4.0 0.02 0.20 0.20 89 1011.5
20260505075503 53 360 3.0 4.0 0.02 0.20 0.20 89 1011.4
20260505075003 53 5 2.0 4.0 0.04 0.20 0.20 88 1011.5
20260505074504 53 357 2.0 4.0 0.06 0.20 0.20 88 1011.1
20260505074003 53 350 2.0 4.0 0.08 0.20 0.20 88 1011.4
20260505073524 53 3 3.0 7.0 0.09 0.20 0.20 88 1011.2
20260505073003 53 358 3.0 7.0 0.11 0.20 0.20 88 1011.2
20260505072503 53 353 2.0 4.0 0.12 0.20 0.20 87 1011.5
20260505072004 53 353 2.0 4.0 0.13 0.20 0.20 87 1011.5
20260505071503 53 356 1.0 3.0 0.13 0.20 0.20 87 1011.5
20260505071003 52 17 1.0 2.0 0.12 0.19 0.19 86 1011.4
20260505070503 52 16 1.0 3.0 0.13 0.19 0.19 85 1011.4
20260505070004 52 5 1.0 3.0 0.12 0.18 0.18 85 1011.7
20260505065504 52 344 1.0 3.0 0.12 0.18 0.18 85 1011.8
20260505065003 52 330 1.0 3.0 0.11 0.17 0.17 85 1011.5
20260505064503 52 336 1.0 3.0 0.08 0.14 0.14 84 1011.5
20260505064003 52 347 1.0 2.0 0.07 0.12 0.12 84 1011.8
20260505063525 52 6 1.0 3.0 0.06 0.11 0.11 84 1011.5
20260505063003 52 352 2.0 4.0 0.05 0.09 0.09 84 1011.7
20260505062503 52 345 2.0 4.0 0.05 0.08 0.08 83 1011.4
20260505062003 52 352 1.0 2.0 0.04 0.07 0.07 83 1011.5
20260505061503 52 4 1.0 4.0 0.04 0.07 0.07 83 1011.4
20260505061003 52 1 1.0 4.0 0.05 0.07 0.07 82 1011.3
20260505060524 52 7 1.0 3.0 0.04 0.06 0.06 82 1011.5
20260505060004 52 3 2.0 4.0 0.04 0.06 0.06 82 1011.4
20260505055525 52 348 2.0 4.0 0.05 0.06 0.06 82 1011.4
20260505055003 52 341 2.0 3.0 0.05 0.06 0.06 81 1011.1
20260505054504 52 353 2.0 3.0 0.05 0.06 0.06 81 1011.3
20260505054003 52 354 3.0 4.0 0.04 0.05 0.05 81 1011.1
20260505053503 52 349 3.0 6.0 0.04 0.05 0.05 80 1011.0
20260505053004 52 338 3.0 6.0 0.04 0.05 0.05 80 1010.9
20260505052524 52 344 4.0 5.0 0.02 0.04 0.04 80 1011.0
20260505052003 52 326 5.0 8.0 0.02 0.04 0.04 79 1011.0
20260505051524 53 311 5.0 11.0 0.02 0.04 0.04 79 1010.9
20260505051039 53 317 3.0 11.0 0.01 0.02 0.02 78 1010.9
20260505050524 53 313 2.0 4.0 0.02 0.02 0.02 77 1010.7
20260505041503 55 0 0.0 0.0 0.01 0.01 0.01 69 1010.7
20260505041024 55 0 0.0 0.0 0.01 0.01 0.01 68 1010.7
20260505040503 55 0 0.0 0.0 0.00 0.00 0.00 65 1010.8
20260505040004 55 0 0.0 0.0 0.00 0.00 0.00 65 1010.8
20260505035503 56 0 0.0 0.0 0.00 0.00 0.00 64 1010.7
20260505035004 56 0 0.0 0.0 0.00 0.00 0.00 64 1010.8
20260505034503 56 0 0.0 0.0 0.00 0.00 0.00 63 1010.6
20260505034003 56 0 0.0 0.0 0.00 0.00 0.00 63 1010.7
20260505033503 56 0 0.0 0.0 0.00 0.00 0.00 62 1010.6
20260505033003 56 0 0.0 0.0 0.00 0.00 0.00 62 1010.7
20260505032503 57 0 0.0 0.0 0.00 0.00 0.00 62 1010.7
20260505032003 57 0 0.0 0.0 0.00 0.00 0.00 62 1010.7
20260505031503 57 0 0.0 0.0 0.00 0.00 0.00 62 1010.9
20260505031003 57 0 0.0 0.0 0.00 0.00 0.00 62 1010.8
20260505030503 57 0 0.0 0.0 0.00 0.00 0.00 62 1010.9
20260505030004 57 22 0.0 1.0 0.00 0.00 0.00 62 1010.7
20260505025503 57 22 1.0 3.0 0.00 0.00 0.00 62 1010.8
20260505025004 57 22 1.0 3.0 0.00 0.00 0.00 62 1010.9
20260505024503 57 15 0.0 1.0 0.00 0.00 0.00 61 1010.9
20260505024024 57 360 0.0 1.0 0.00 0.00 0.00 61 1011.0
20260505023524 57 0 0.0 0.0 0.00 0.00 0.00 61 1011.0
20260505023003 57 0 0.0 0.0 0.00 0.00 0.00 61 1011.1
20260505022503 57 323 0.0 4.0 0.00 0.00 0.00 61 1011.3
20260505022003 57 318 1.0 4.0 0.00 0.00 0.00 61 1011.3
20260505021539 58 315 1.0 4.0 0.00 0.00 0.00 61 1011.4
20260505021003 58 0 0.0 0.0 0.00 0.00 0.00 61 1011.5
20260505020503 58 0 0.0 0.0 0.00 0.00 0.00 61 1011.7
20260505020003 58 0 0.0 0.0 0.00 0.00 0.00 61 1011.6
20260505015503 58 315 0.0 1.0 0.00 0.00 0.00 61 1011.6
20260505015003 58 315 0.0 2.0 0.00 0.00 0.00 61 1011.7
20260505014524 58 282 1.0 4.0 0.00 0.00 0.00 61 1011.5
20260505014003 58 272 3.0 4.0 0.00 0.00 0.00 61 1011.8
20260505013503 58 278 4.0 9.0 0.00 0.00 0.00 61 1011.8
20260505013003 58 280 5.0 9.0 0.00 0.00 0.00 62 1011.8
20260505012503 57 277 5.0 9.0 0.00 0.00 0.00 62 1012.0
20260505012003 57 278 3.0 5.0 0.00 0.00 0.00 62 1012.0
20260505011503 58 277 1.0 3.0 0.00 0.00 0.00 62 1012.1
20260505011003 58 280 1.0 2.0 0.00 0.00 0.00 61 1012.1
20260505010503 58 282 1.0 2.0 0.00 0.00 0.00 61 1012.2
20260505010004 58 283 0.0 2.0 0.00 0.00 0.00 61 1012.2
20260505005503 58 270 1.0 4.0 0.00 0.00 0.00 61 1012.2
20260505005004 58 278 1.0 4.0 0.00 0.00 0.00 61 1012.5
20260505004503 58 277 1.0 3.0 0.00 0.00 0.00 61 1012.5
20260505004003 58 259 2.0 4.0 0.00 0.00 0.00 61 1012.8
20260505003503 59 255 2.0 4.0 0.00 0.00 0.00 62 1012.9
20260505003003 59 264 1.0 4.0 0.00 0.00 0.00 62 1012.9
20260505002524 59 261 1.0 4.0 0.00 0.00 0.00 62 1013.1
20260505002003 59 258 1.0 3.0 0.00 0.00 0.00 62 1013.2
20260505001503 59 0 0.0 0.0 0.00 0.00 0.00 61 1013.2
20260505001003 59 0 0.0 0.0 0.00 0.00 0.00 61 1013.3
20260505000524 59 0 0.0 0.0 0.00 0.00 0.00 61 1013.3
20260505000024 59 0 0.0 0.0 0.00 0.00 0.00 61 1013.5
20260504235524 59 0 0.0 0.0 0.00 0.00 0.00 61 1013.4
20260504235003 59 0 0.0 0.0 0.00 0.00 0.00 61 1013.6
20260504234503 59 0 0.0 0.0 0.00 0.00 0.00 61 1013.6
20260504234003 59 0 0.0 0.0 0.00 0.00 0.00 61 1013.7
20260504233503 59 0 0.0 0.0 0.00 0.00 0.00 61 1013.6
20260504233003 59 270 0.0 1.0 0.00 0.00 0.00 61 1013.7
20260504232503 59 270 0.0 1.0 0.00 0.00 0.00 61 1013.8
20260504232003 60 315 0.0 2.0 0.00 0.00 0.00 61 1013.8
20260504231504 60 289 1.0 2.0 0.00 0.00 0.00 61 1013.8
20260504231003 60 290 0.0 2.0 0.00 0.00 0.00 61 1014.0
20260504230503 60 289 1.0 2.0 0.00 0.00 0.00 61 1013.9
20260504230003 60 275 1.0 3.0 0.00 0.00 0.00 61 1014.0
20260504225524 60 275 1.0 3.0 0.00 0.00 0.00 60 1014.1
20260504225003 60 292 1.0 3.0 0.00 0.00 0.00 60 1014.1
20260504224503 60 297 2.0 4.0 0.00 0.00 0.00 60 1014.2
20260504224003 60 288 2.0 4.0 0.00 0.00 0.00 60 1014.1
20260504223503 60 273 2.0 4.0 0.00 0.00 0.00 60 1014.1
20260504223003 60 281 1.0 4.0 0.00 0.00 0.00 60 1014.2
20260504222503 60 278 1.0 3.0 0.00 0.00 0.00 60 1014.2
20260504222003 60 272 1.0 3.0 0.00 0.00 0.00 60 1014.3
20260504221503 60 276 2.0 3.0 0.00 0.00 0.00 60 1014.3
20260504221003 60 273 2.0 3.0 0.00 0.00 0.00 60 1014.3
20260504220503 60 267 2.0 2.0 0.00 0.00 0.00 60 1014.3
20260504220003 60 265 2.0 5.0 0.00 0.00 0.00 60 1014.5
20260504215503 60 271 3.0 5.0 0.00 0.00 0.00 60 1014.5
20260504215003 60 274 3.0 5.0 0.00 0.00 0.00 60 1014.4
20260504214503 60 269 1.0 4.0 0.00 0.00 0.00 60 1014.5
20260504214003 60 260 1.0 2.0 0.00 0.00 0.00 59 1014.5
20260504213503 60 269 1.0 3.0 0.00 0.00 0.00 59 1014.6
20260504213003 60 274 3.0 5.0 0.00 0.00 0.00 59 1014.5
20260504212524 60 269 4.0 5.0 0.00 0.00 0.00 59 1014.6
20260504212024 61 266 4.0 6.0 0.00 0.00 0.00 59 1014.7
20260504211503 61 264 5.0 7.0 0.00 0.00 0.00 58 1014.9
20260504211024 61 266 6.0 8.0 0.00 0.00 0.00 58 1014.9
20260504210503 61 274 6.0 8.0 0.00 0.00 0.00 58 1014.8
20260504210024 60 270 5.0 8.0 0.00 0.00 0.00 58 1014.8
20260504205503 60 269 5.0 7.0 0.00 0.00 0.00 58 1014.9